Simultaneous Nadir Overpasses (SNOs) Predictions

Prediction of SNOs between GOES-14 and NPP Satellite Orbit:

Table of predicted SNOs for the next 14.0 days since TLE Epoch: 12/3/2022
Index Date Time (GOES-14) GOES-14 Lat,Lon NPP Lat,Lon Distance(km) Time Diff (sec)
1 12/03/2022 20:17:53 0.02,-104.04 0.32,-102.68 154.83 80
2 12/05/2022 08:39:45 -0.04,-104.37 0.78,-107.97 410.44 80
3 12/06/2022 08:18:21 -0.03,-104.37 -0.21,-103.44 105.10 80
4 12/08/2022 20:21:36 0.03,-104.03 -0.01,-104.21 20.31 80
5 12/09/2022 20:05:32 0.02,-104.04 0.99, -99.68 496.70 80
6 12/11/2022 08:27:24 -0.04,-104.38 0.11,-104.97 67.56 80
7 12/12/2022 08:06:00 -0.03,-104.38 -0.88,-100.44 447.94 80
8 12/13/2022 20:27:59 0.05,-104.03 -0.32,-105.75 195.58 80
9 12/14/2022 20:11:55 0.04,-104.04 0.68,-101.22 321.50 80
10 12/16/2022 08:33:46 -0.06,-104.41 0.42,-106.51 239.65 80
